Location: Unspecified
(40.7945°N, 0.0000°E)
Time: 07:04:43
(UTC+00:00)

deb Explorer IX - Pass Details

Date: 27 January 2021
Orbit: 537 x 1103 km, 38.8° (Epoch: 23 February)

Event Time Altitude Azimuth Distance (km) Brightness Sun altitude
Rises 20:27:22 0° 278° (W) 3,552 ? -37.1°
Reaches altitude 10° 20:30:14 10° 273° (W) 2,514 ? -37.6°
Enters shadow 20:33:05 26° 259° (W) 1,554 ? -38.1°
